Wind_Speed
5 5 6 6 6 7 7 7 7 8 8 8 9 9 9 9 9 9 10 9 9 9 9 9 8 8 8 8 8 7 7 7 7 7 7 6 6 6 6 6 6 6 6
6 6 7 8 8 8 8 8 9 8 8 9 10 10 10 10 10 10 10 10 9 9 9 9 9 9 10 10 9 9 9 8 8 7 7 7 7 7 7 6 6 7 7
8 8 8 9 9 9 9 9 10 9 9 9 10 10 10 10 10 9 9 10 9 9 9 9 10 10 10 10 10 10 9 9 8 8 8 9 9 8 8 8 8 8 8
11 10 10 10 10 10 11 11 11 11 10 10 10 10 10 10 9 9 9 9 10 10 10 11 10 10 10 10 10 10 10 10 9 9 9 9 9 10 9 9 8 9 9
12 12 12 11 11 12 12 12 12 12 12 11 11 11 10 10 10 9 9 9 10 10 10 10 10 10 10 10 10 10 11 10 9 9 9 9 9 9 10 10 10 10 10
13 13 13 12 12 12 12 13 13 13 13 12 12 12 11 11 11 11 10 10 11 11 11 10 10 10 10 10 10 10 10 11 10 10 9 10 10 10 10 10 11 11 11
13 14 13 13 13 12 13 13 13 13 13 12 12 11 12 12 12 12 12 11 11 11 11 10 10 10 10 11 12 12 11 11 11 11 11 11 11 11 10 10 11 11 11
14 15 14 14 13 14 14 14 13 13 13 13 13 13 13 13 14 13 13 12 13 13 12 11 11 11 11 12 12 12 11 10 11 11 12 11 11 11 11 11 11 12 12
14 14 14 13 13 14 13 13 13 13 13 13 13 13 13 14 14 14 13 14 13 13 13 13 12 12 13 13 13 12 11 11 11 11 11 11 12 13 13 13 13 13 14
13 13 14 13 13 13 12 12 12 12 12 12 12 12 13 14 14 14 14 14 14 14 14 13 13 13 14 14 13 12 12 12 12 12 12 12 13 13 14 14 15 15 15
13 13 13 13 13 12 12 12 12 12 12 12 12 12 12 13 14 14 14 13 14 14 13 13 14 13 13 13 12 12 13 13 13 13 13 13 14 14 14 15 15 16 16
14 14 13 13 13 12 12 12 13 13 12 12 12 12 13 13 13 14 14 13 13 14 14 13 14 13 13 13 13 14 13 14 14 14 14 14 14 15 16 16 17 17 18
15 14 13 13 13 13 12 12 12 13 14 14 14 14 13 13 13 14 14 14 14 14 14 14 14 14 13 13 14 14 14 15 14 15 15 16 16 16 17 17 18 19 19
16 14 14 13 13 13 13 13 13 14 14 14 15 15 14 14 13 13 14 15 15 14 15 15 15 14 14 15 15 16 16 16 17 17 17 17 17 18 18 18 19 20 20
17 14 14 14 14 14 14 14 14 15 15 16 16 16 15 14 15 15 15 16 16 16 16 16 16 16 16 16 17 17 17 17 17 18 19 19 19 19 19 20 21 21 21
17 16 15 15 15 15 15 15 16 16 16 16 17 16 16 15 15 16 16 16 16 16 16 16 16 16 16 17 17 18 18 19 19 19 19 20 20 21 21 22 22 22 22
18 17 16 16 16 16 16 16 17 17 17 16 16 16 16 16 16 17 16 17 16 16 16 16 16 15 16 17 19 20 20 20 20 20 20 21 21 22 23 23 23 24 24
19 18 17 17 16 17 17 17 17 17 18 18 17 17 17 18 17 17 17 17 16 17 17 17 16 16 17 18 19 21 21 21 21 22 22 22 23 23 23 24 25 25 25
20 20 19 19 19 19 18 18 18 18 18 19 19 18 18 18 18 18 17 17 17 17 17 16 17 17 18 19 20 21 21 21 22 23 23 24 25 25 26 26 27 27 27
22 22 22 20 20 19 19 18 18 18 19 19 19 19 19 19 18 18 18 18 18 18 17 17 17 18 19 19 20 20 21 22 22 23 24 25 27 28 28 28 29 29 29
22 22 22 22 21 20 19 19 18 18 18 18 18 18 19 18 18 18 18 18 17 17 17 17 17 18 19 20 20 20 21 22 23 23 24 25 27 28 28 28 29 29 30
22 22 23 22 21 21 20 19 19 18 18 18 17 17 17 18 18 18 18 18 18 18 18 19 19 19 19 20 20 21 22 23 23 24 25 26 27 28 28 29 29 30 30
22 21 22 22 21 21 20 20 20 19 19 18 19 18 18 18 18 19 19 19 19 20 21 21 21 21 22 22 22 23 23 23 24 26 26 27 27 28 29 30 30 30 31
22 22 21 22 22 21 21 21 20 20 20 19 20 20 19 19 19 19 20 20 21 22 22 23 23 24 24 24 24 24 25 26 26 26 27 28 28 29 30 30 30 30 30
24 22 22 22 21 21 21 21 20 20 20 19 19 20 20 20 20 20 21 21 21 22 23 24 25 25 25 26 26 25 26 27 27 27 28 29 30 31 31 31 31 32 33
25 24 23 22 22 21 21 21 21 20 20 20 19 20 20 20 20 21 21 21 22 23 24 24 24 25 25 25 25 26 27 27 28 28 29 30 31 31 32 32 33 34 34
Wind_Direction
272 279 283 287 289 284 281 275 269 273 271 268 267 267 262 259 262 263 263 268 273 273 271 273 272 265 257 259 264 269 274 277 278 278 275 275 282 287 291 290 291 286 285
277 281 282 283 285 285 282 283 280 281 276 273 271 268 262 261 262 263 262 265 270 272 271 271 273 269 263 261 262 264 268 271 271 274 276 271 272 278 285 292 294 290 287
277 279 280 281 283 283 281 281 282 278 275 274 275 270 264 259 261 265 264 265 265 265 271 275 276 274 268 264 264 265 267 270 272 273 273 272 271 274 279 290 291 291 289
272 275 276 277 278 281 281 281 281 279 276 276 274 268 266 262 263 268 269 268 266 268 273 275 278 277 271 267 267 267 267 269 273 273 269 269 272 274 278 283 288 293 293
266 269 274 274 277 282 281 280 281 280 281 278 277 266 265 266 266 268 268 270 270 270 275 279 276 276 274 272 269 268 268 268 271 269 266 267 271 272 277 281 284 291 294
264 266 269 271 275 282 284 283 281 279 281 277 276 267 263 265 265 266 267 269 271 270 273 280 278 271 272 273 274 275 270 268 266 266 264 266 268 272 278 281 285 289 291
264 266 267 269 273 279 282 283 281 279 278 278 276 269 264 265 267 268 270 272 274 273 274 281 278 271 270 274 275 273 271 268 266 268 267 270 271 274 279 281 284 286 289
263 263 263 265 270 275 276 277 278 278 274 274 273 267 265 267 270 272 271 272 274 275 276 278 277 273 273 274 276 276 267 266 269 271 272 272 272 274 277 282 283 284 287
262 262 264 264 268 270 271 272 274 277 273 271 271 268 266 265 270 273 272 272 274 274 275 275 274 271 270 273 275 276 268 267 270 273 274 274 273 273 276 280 282 284 285
259 263 263 263 266 265 265 269 271 273 271 271 276 273 267 265 268 270 271 270 271 273 273 271 271 272 269 271 273 271 266 268 271 271 275 277 276 273 275 279 282 283 285
255 259 262 262 263 259 261 266 268 269 268 270 274 271 272 268 269 271 271 271 269 272 273 273 272 273 270 270 271 272 269 268 273 273 276 278 277 274 275 279 282 283 284
254 257 261 262 259 259 262 264 263 267 268 270 273 274 274 271 268 269 271 272 272 272 272 273 274 273 269 269 271 272 270 270 272 273 275 277 278 277 278 280 282 284 284
253 255 257 257 255 258 263 267 266 268 270 271 273 278 278 277 271 267 269 271 272 271 270 271 274 272 269 268 270 270 272 270 270 273 275 277 277 279 280 281 282 284 283
254 256 253 252 253 256 262 269 271 272 274 275 276 277 278 277 274 273 273 272 272 271 270 272 272 271 268 266 267 268 273 271 271 274 275 277 276 277 279 280 282 283 283
251 254 251 251 254 257 261 266 271 274 275 274 278 277 274 275 276 275 276 274 272 272 272 272 269 267 267 268 268 269 271 272 273 275 275 277 278 278 278 281 283 283 281
248 251 250 249 252 256 260 263 268 271 274 276 276 276 273 273 275 276 276 276 273 271 270 270 269 267 267 269 270 271 271 272 274 275 275 278 280 279 281 281 281 282 282
245 248 246 248 252 256 259 262 266 270 274 275 274 272 271 272 274 274 278 277 273 269 270 270 268 268 271 273 274 273 272 275 275 274 276 279 281 282 283 282 281 282 281
243 246 245 248 254 257 259 261 266 270 274 272 269 268 271 273 273 273 275 276 273 272 274 271 268 270 272 275 278 277 275 274 274 275 278 281 282 282 282 282 282 283 282
242 245 248 251 254 257 258 261 265 270 274 271 266 268 269 272 272 268 270 273 274 275 275 272 270 271 272 275 281 281 277 275 274 275 278 279 280 282 283 282 282 283 282
242 247 250 252 252 254 257 262 266 271 272 270 266 266 266 269 268 267 269 271 273 274 274 273 271 271 274 277 281 283 280 277 277 278 279 280 280 280 281 281 282 283 282
242 245 248 251 251 252 255 262 268 272 272 270 266 264 264 266 267 268 270 270 270 271 273 273 272 274 275 277 281 282 283 281 280 280 281 281 281 281 282 283 283 285 285
242 245 247 251 251 252 255 260 265 270 272 270 266 265 264 266 265 266 268 269 268 269 272 273 274 276 277 279 281 282 283 284 283 281 281 283 283 283 283 284 284 286 286
242 244 246 249 252 254 258 263 266 268 269 269 267 267 264 267 266 265 265 268 269 270 270 272 275 278 279 281 283 284 285 285 284 282 282 284 285 286 287 287 286 287 288
243 246 247 251 253 255 259 263 267 267 267 268 268 267 266 265 266 267 268 268 269 272 273 273 275 278 280 281 283 285 285 285 284 283 283 285 286 287 287 287 288 290 291
242 246 249 250 254 258 260 262 265 267 268 269 267 265 265 266 267 270 270 271 272 274 276 276 278 278 280 282 283 284 285 286 285 286 286 287 289 289 288 288 290 292 293
242 246 248 250 255 259 260 261 264 265 266 269 268 266 266 267 268 271 273 273 273 274 275 276 277 278 280 280 281 282 284 286 287 288 288 289 290 290 290 290 292 293 294
Height
5903 5903 5903 5903 5903 5903 5903 5903 5902 5902 5902 5902 5902 5902 5902 5902 5902 5902 5902 5902 5902 5902 5902 5902 5901 5901 5902 5902 5901 5901 5901 5901 5900 5900 5900 5900 5900 5899 5899 5899 5899 5898 5898
5902 5902 5902 5902 5902 5902 5901 5901 5901 5900 5900 5900 5900 5900 5900 5900 5900 5900 5900 5900 5900 5900 5900 5900 5900 5900 5900 5900 5900 5899 5899 5899 5899 5899 5898 5898 5899 5898 5898 5898 5898 5897 5897
5901 5901 5900 5900 5900 5900 5900 5900 5899 5899 5898 5898 5898 5898 5898 5898 5898 5898 5898 5898 5898 5898 5898 5898 5898 5898 5898 5898 5898 5897 5897 5897 5897 5897 5897 5897 5897 5897 5897 5896 5896 5896 5895
5899 5899 5899 5899 5898 5898 5898 5897 5897 5897 5896 5896 5896 5896 5896 5896 5896 5896 5896 5896 5896 5896 5896 5896 5896 5895 5895 5895 5895 5895 5895 5895 5895 5895 5895 5895 5895 5895 5895 5895 5894 5894 5894
5896 5897 5896 5897 5896 5896 5895 5895 5895 5895 5894 5894 5894 5894 5894 5894 5894 5894 5894 5894 5894 5894 5894 5893 5893 5893 5893 5893 5893 5893 5893 5893 5893 5893 5893 5893 5893 5893 5893 5893 5893 5892 5892
5894 5893 5894 5894 5894 5893 5893 5892 5892 5892 5892 5891 5891 5891 5892 5891 5892 5892 5892 5891 5891 5892 5891 5891 5891 5891 5891 5891 5891 5891 5890 5890 5891 5891 5891 5891 5891 5891 5891 5891 5891 5890 5890
5890 5890 5891 5891 5891 5891 5890 5889 5889 5889 5889 5889 5889 5889 5889 5889 5889 5889 5889 5889 5889 5889 5889 5888 5888 5888 5888 5889 5889 5888 5888 5888 5888 5888 5888 5888 5888 5889 5889 5889 5888 5888 5888
5887 5887 5887 5887 5887 5887 5887 5887 5886 5886 5886 5886 5886 5886 5886 5887 5887 5887 5887 5887 5887 5887 5886 5886 5886 5886 5886 5886 5886 5885 5885 5885 5885 5885 5885 5885 5886 5886 5886 5886 5886 5885 5885
5884 5884 5884 5884 5884 5884 5884 5884 5883 5883 5883 5883 5883 5883 5884 5884 5884 5884 5884 5884 5884 5884 5884 5884 5883 5883 5883 5883 5883 5882 5882 5882 5883 5883 5883 5883 5883 5883 5883 5883 5883 5883 5882
5880 5880 5881 5881 5881 5881 5881 5881 5881 5881 5880 5881 5881 5880 5880 5881 5882 5882 5881 5881 5881 5881 5880 5880 5880 5880 5880 5880 5880 5879 5880 5880 5880 5880 5880 5880 5879 5879 5880 5880 5879 5879 5878
5877 5877 5878 5878 5878 5878 5878 5878 5878 5878 5878 5878 5878 5878 5878 5878 5878 5878 5878 5878 5878 5878 5877 5877 5876 5876 5876 5876 5876 5876 5876 5877 5877 5877 5877 5877 5876 5876 5876 5876 5876 5875 5874
5873 5874 5874 5874 5875 5875 5875 5875 5875 5876 5876 5875 5875 5875 5875 5875 5874 5875 5875 5875 5874 5874 5874 5873 5873 5873 5873 5873 5873 5873 5873 5873 5873 5873 5873 5873 5873 5873 5872 5872 5872 5871 5870
5870 5870 5871 5871 5872 5872 5872 5872 5872 5873 5873 5873 5873 5872 5871 5871 5871 5872 5872 5871 5871 5871 5871 5870 5869 5869 5869 5870 5870 5870 5870 5870 5870 5870 5870 5869 5869 5868 5868 5867 5867 5866 5865
5866 5867 5868 5868 5869 5869 5869 5869 5869 5870 5870 5870 5869 5869 5869 5869 5869 5868 5868 5868 5868 5867 5867 5867 5866 5866 5866 5866 5866 5866 5866 5866 5866 5866 5865 5865 5864 5864 5863 5862 5862 5861 5860
5862 5863 5864 5865 5866 5866 5866 5866 5866 5866 5866 5866 5866 5866 5866 5866 5865 5865 5865 5864 5864 5864 5863 5863 5862 5862 5862 5862 5862 5862 5862 5862 5861 5861 5861 5860 5860 5859 5858 5857 5857 5855 5854
5858 5859 5860 5861 5862 5862 5863 5863 5863 5863 5862 5862 5862 5862 5862 5862 5862 5862 5861 5860 5860 5860 5859 5859 5858 5858 5858 5858 5858 5858 5857 5857 5856 5856 5855 5855 5854 5854 5853 5852 5851 5850 5848
5854 5855 5856 5857 5858 5858 5859 5859 5859 5859 5858 5858 5858 5858 5858 5858 5858 5857 5857 5856 5856 5855 5855 5855 5854 5854 5854 5853 5853 5853 5852 5851 5851 5850 5850 5849 5848 5848 5847 5846 5844 5843 5842
5849 5850 5851 5853 5853 5854 5855 5855 5855 5855 5854 5854 5854 5854 5854 5854 5854 5853 5853 5853 5852 5851 5851 5850 5850 5850 5850 5849 5848 5847 5846 5845 5845 5844 5844 5843 5842 5841 5840 5839 5838 5837 5835
5845 5846 5847 5848 5849 5849 5850 5850 5851 5850 5850 5850 5850 5850 5850 5849 5849 5849 5849 5848 5848 5847 5847 5846 5845 5845 5845 5844 5844 5842 5841 5840 5839 5838 5837 5837 5836 5835 5833 5832 5831 5830 5828
5839 5841 5842 5843 5844 5844 5845 5845 5845 5845 5845 5845 5845 5845 5844 5844 5844 5844 5844 5844 5843 5843 5842 5842 5841 5841 5840 5839 5839 5837 5836 5835 5834 5832 5831 5830 5829 5828 5826 5825 5823 5822 5820
5834 5836 5837 5838 5839 5840 5840 5841 5841 5840 5840 5839 5839 5839 5839 5839 5839 5839 5839 5839 5839 5839 5838 5837 5837 5836 5835 5834 5834 5832 5831 5829 5828 5826 5825 5824 5822 5821 5819 5818 5816 5814 5812
5829 5830 5832 5833 5834 5835 5835 5836 5836 5835 5835 5834 5834 5834 5834 5834 5834 5834 5834 5834 5834 5833 5833 5833 5832 5831 5830 5830 5828 5827 5825 5823 5822 5820 5819 5817 5816 5814 5812 5811 5809 5807 5805
5823 5825 5827 5828 5829 5830 5830 5831 5830 5830 5830 5829 5829 5829 5829 5829 5829 5829 5829 5829 5828 5828 5828 5828 5827 5826 5825 5824 5823 5821 5819 5817 5815 5813 5812 5811 5809 5807 5805 5803 5801 5799 5797
5818 5820 5821 5823 5824 5824 5825 5825 5825 5825 5825 5825 5824 5824 5824 5824 5824 5824 5823 5823 5823 5823 5822 5822 5821 5820 5819 5818 5816 5815 5813 5811 5809 5807 5805 5804 5802 5800 5798 5795 5793 5791 5788
5813 5814 5816 5817 5818 5819 5820 5820 5820 5820 5820 5820 5819 5819 5819 5819 5819 5818 5818 5817 5817 5817 5816 5815 5814 5813 5812 5811 5809 5808 5806 5804 5802 5801 5799 5797 5794 5792 5790 5787 5785 5782 5780
5807 5808 5810 5811 5812 5813 5814 5814 5815 5815 5815 5814 5814 5814 5813 5813 5813 5813 5812 5811 5811 5810 5809 5808 5807 5806 5805 5803 5802 5800 5799 5797 5795 5793 5791 5789 5786 5784 5781 5779 5776 5774 5770